GFSSW_500_spd_057.txt.gz
Wind_Speed
18 17 15 14 13 13 13 14 15 16 18 19 20 22 23 25 26 29 35 37 42 39 40 49 47 46 51 47 43 38 47 45 40 42 41 38 39 39 38 45 44 48 47 44 47
17 16 17 17 16 15 15 16 17 18 18 19 20 22 24 25 25 27 29 33 38 41 41 43 48 51 50 54 54 48 54 55 47 42 45 41 40 38 39 50 50 52 47 43 45
16 16 15 15 16 16 17 18 19 19 19 21 22 23 24 26 27 26 28 31 34 37 42 44 44 46 46 50 52 59 56 51 47 44 45 43 42 41 45 47 47 49 50 47 49
12 12 12 14 14 15 17 18 18 19 20 21 23 25 26 28 29 29 30 31 32 33 37 42 44 46 45 46 52 57 65 61 53 49 51 46 44 46 48 49 50 49 50 53 52
12 12 13 13 14 14 15 16 16 17 19 20 22 23 25 28 28 30 32 34 34 36 37 38 41 45 48 47 51 52 49 56 63 61 58 55 47 49 49 48 50 54 52 58 55
16 16 16 17 18 19 19 20 20 20 21 22 23 24 25 27 27 28 30 31 33 36 39 42 43 46 46 49 53 50 54 52 57 66 64 64 54 55 56 50 51 57 61 63 58
17 19 21 21 22 22 22 23 22 22 22 23 25 26 27 29 30 31 32 33 35 37 38 40 42 45 49 52 51 53 57 58 59 56 59 66 68 68 57 56 56 55 60 61 56
18 19 19 21 23 25 25 25 25 26 26 25 26 28 31 31 33 34 37 39 41 42 43 44 45 46 47 50 53 57 60 62 57 58 57 61 67 63 63 59 59 55 60 56 56
19 18 19 20 22 23 24 25 26 26 27 28 28 30 33 33 34 36 38 41 44 46 47 48 51 52 54 55 57 57 59 61 59 56 58 60 64 54 62 65 64 58 58 58 57
22 18 17 18 19 20 22 22 23 23 25 26 26 28 27 32 34 36 39 41 43 46 48 49 50 52 56 60 63 60 63 62 61 58 57 59 65 59 55 63 67 68 62 56 58
24 22 18 16 15 17 19 20 20 20 24 24 27 29 32 34 36 38 40 44 47 47 48 50 52 55 59 58 59 64 68 70 65 61 54 46 62 62 59 61 68 70 67 68 60
22 23 21 19 17 17 17 18 20 21 22 22 27 29 31 33 35 39 41 43 44 46 48 49 51 56 60 61 64 67 69 70 71 69 54 47 57 68 63 64 61 66 73 73 70
21 21 23 24 21 19 18 19 20 21 22 23 27 29 31 34 36 36 40 43 45 49 52 54 55 53 55 60 65 69 73 75 73 72 63 70 60 71 70 64 64 62 68 74 72
20 21 21 23 25 25 22 22 21 21 24 22 23 26 33 35 39 42 42 46 49 52 54 57 49 46 48 52 54 63 63 67 75 74 66 73 61 72 68 69 67 61 61 64 72
20 19 20 23 24 26 26 24 22 22 24 23 29 29 32 36 38 43 48 53 56 53 40 35 29 29 32 31 34 40 42 45 62 71 72 69 57 58 68 69 69 64 59 59 62
21 19 19 23 25 26 27 25 24 23 21 27 26 29 33 36 39 45 48 45 41 36 25 18 22 25 27 27 31 37 38 39 42 44 52 67 57 51 55 58 50 52 62 61 59
20 20 22 24 24 25 27 26 24 21 27 29 27 32 33 37 40 40 32 32 24 27 19 27 13 23 22 25 29 23 22 28 34 45 54 49 60 57 36 37 41 42 51 56 53
19 20 22 22 24 25 26 26 23 24 24 26 27 28 35 34 32 24 27 22 29 28 21 22 19 22 17 18 19 22 22 30 32 33 41 39 57 62 50 27 38 43 52 55 48
20 21 22 22 23 25 27 27 24 24 25 22 24 27 28 31 23 27 24 23 24 20 20 22 20 20 11 21 23 18 31 17 31 31 38 39 36 44 57 50 41 29 46 51 45
22 21 21 22 23 24 26 24 24 23 24 23 24 25 26 18 19 24 24 20 23 21 19 19 26 15 16 17 21 22 20 21 29 29 27 31 28 38 37 39 42 36 35 45 42
24 21 20 20 22 25 26 26 26 24 24 21 22 25 25 15 21 26 27 22 23 22 21 18 19 18 17 17 11 13 20 25 22 28 23 15 14 30 38 37 40 33 37 34 42
25 22 19 20 23 25 27 26 24 25 23 20 19 22 21 15 20 25 27 21 26 24 18 19 17 14 17 19 16 7 11 22 24 26 27 20 26 20 36 30 35 44 46 35 39
27 23 20 22 24 27 27 24 23 25 24 22 20 21 17 14 19 21 26 23 18 16 18 18 15 19 11 15 18 15 15 15 28 24 35 24 12 10 38 38 41 55 49 41 45
27 24 20 22 25 27 27 24 22 23 24 21 19 20 16 12 17 25 28 27 20 15 15 18 14 18 16 20 16 13 16 22 22 24 39 31 13 25 20 28 32 51 55 48 39
29 27 26 25 26 28 28 25 20 22 23 20 20 20 15 10 12 22 23 25 20 16 9 8 8 12 12 15 10 17 16 11 24 24 36 38 35 32 37 30 32 48 52 53 50
32 30 29 28 27 29 29 27 21 21 20 19 19 20 16 10 14 17 17 19 16 11 8 4 6 8 9 9 13 15 17 20 20 21 48 45 45 25 27 38 50 54 50 47 51
32 33 32 31 30 29 30 29 26 19 22 16 17 18 15 11 10 16 16 17 19 15 9 5 7 9 8 10 15 4 11 18 21 21 24 56 45 34 31 41 49 50 52 49 41

GFSSW_500_spd_060.txt.gz
Wind_Speed
20 20 21 20 19 18 16 16 17 16 17 17 18 19 20 23 28 35 40 41 43 45 46 47 45 41 46 46 45 44 47 46 43 43 39 33 42 40 43 37 30 26 33 40 38
20 19 19 19 19 20 19 17 16 16 16 16 17 18 19 20 21 23 28 34 36 37 40 43 44 42 42 49 54 55 53 55 38 39 43 39 43 42 40 34 36 34 31 45 49
17 17 19 19 18 19 19 18 18 18 18 18 19 20 21 22 23 20 25 28 29 32 36 38 39 40 41 44 49 54 58 50 48 43 43 41 44 44 43 37 36 43 45 50 49
15 15 15 15 15 15 18 19 18 19 20 21 21 22 23 24 25 23 26 27 28 30 33 37 39 42 43 42 44 52 51 54 56 52 51 56 52 45 48 45 42 22 41 53 45
18 19 18 18 18 18 17 17 17 17 19 20 20 21 23 24 24 26 26 28 29 30 32 34 36 39 42 45 47 48 45 48 52 58 59 56 64 61 49 45 40 43 28 35 46
17 18 20 22 23 22 22 20 20 19 20 21 21 22 23 25 21 24 26 28 30 31 34 36 38 40 40 43 47 48 50 51 50 53 58 68 63 58 61 50 47 48 46 36 41
18 20 20 20 21 24 25 24 24 22 21 21 21 22 24 24 24 24 25 26 28 30 32 34 36 37 41 44 45 48 51 54 54 52 52 54 63 72 56 55 51 49 49 54 42
18 20 21 21 21 22 23 24 25 26 24 24 24 25 28 23 28 28 29 30 31 32 34 36 37 38 40 42 44 47 51 53 47 52 50 54 61 51 51 64 62 57 49 51 55
19 19 18 19 20 20 20 21 23 24 25 26 27 28 32 28 29 32 33 34 33 34 36 38 41 42 44 47 48 47 51 51 50 52 54 53 59 53 50 54 67 67 62 57 54
18 18 18 18 18 17 16 16 17 19 22 24 24 27 28 31 29 31 32 34 35 36 38 40 43 46 48 50 50 52 55 55 55 48 53 47 58 55 54 53 57 63 71 67 63
18 18 16 18 19 18 17 16 15 14 17 18 19 23 26 27 30 31 33 34 36 37 39 42 45 47 50 53 55 58 60 61 59 58 58 46 55 59 58 58 56 58 58 66 68
19 17 17 16 18 19 19 16 16 14 16 16 20 22 25 28 31 33 34 35 37 40 41 42 45 48 51 53 55 59 63 65 66 65 66 63 67 64 61 60 61 61 58 58 63
21 19 17 16 17 18 18 18 18 16 15 16 20 22 24 25 30 30 34 37 38 40 41 44 46 49 51 53 55 57 60 62 65 65 62 69 71 69 65 64 64 57 61 58 59
21 20 17 16 16 17 18 20 19 20 20 14 14 15 23 24 29 28 31 33 37 40 44 47 46 48 52 52 51 56 52 55 60 60 65 61 72 68 67 67 66 64 66 62 58
20 19 17 15 17 18 18 20 19 20 20 19 21 19 24 25 26 30 35 38 41 44 46 42 41 42 35 29 25 32 38 36 39 42 52 62 66 79 71 70 68 67 65 65 61
19 18 16 16 18 17 18 19 20 20 16 23 20 22 25 27 28 32 36 38 39 38 32 36 34 20 19 26 27 29 37 40 40 43 50 67 53 79 75 73 70 65 65 64 64
18 13 15 16 17 17 17 18 19 16 20 23 23 25 26 27 26 31 26 24 24 32 31 32 25 18 18 10 16 24 27 32 34 34 46 48 44 71 69 67 61 33 42 47 55
22 18 16 16 18 18 17 19 19 17 19 23 23 23 25 23 26 26 20 19 28 33 35 32 21 24 31 25 23 22 26 32 34 30 29 32 43 47 57 55 38 40 36 34 32
20 18 18 18 18 17 18 21 22 21 22 21 22 23 19 17 27 21 18 24 27 30 31 30 27 26 24 24 19 20 23 23 36 31 41 32 33 38 39 45 47 33 44 45 48
24 19 16 18 17 17 19 21 21 22 21 21 22 22 21 22 25 18 21 22 29 33 35 31 35 20 27 16 19 20 19 24 25 34 28 23 30 26 33 56 40 34 31 52 56
27 23 17 16 19 21 23 22 25 25 22 21 21 22 23 23 20 16 20 23 28 34 32 30 35 19 17 15 20 18 21 18 22 30 27 27 15 22 27 59 48 30 19 44 41
28 24 21 21 22 23 25 26 26 27 24 21 20 19 21 22 13 15 20 25 29 29 26 29 26 20 16 19 24 22 18 21 36 22 20 23 12 7 29 45 51 31 27 38 44
30 27 25 23 24 25 27 27 28 26 26 22 22 19 19 21 11 14 19 23 26 25 27 19 16 19 14 12 21 23 21 20 27 17 22 30 19 17 21 47 46 49 58 52 50
29 28 26 25 26 27 27 29 29 30 24 24 22 19 18 19 13 14 17 21 22 21 22 14 12 15 20 19 23 12 12 22 22 18 20 34 22 33 33 39 40 40 25 43 48
30 27 27 28 29 30 30 30 28 28 28 24 23 21 17 16 13 14 16 17 22 20 17 14 13 13 13 15 11 16 17 13 17 16 26 23 27 38 26 21 44 35 15 52 48
30 29 28 28 29 30 32 31 30 26 26 22 24 23 19 16 13 12 14 18 19 20 19 19 13 12 8 13 10 13 16 22 19 18 24 25 28 28 28 27 28 13 18 51 50
30 29 29 29 30 31 32 32 32 27 24 25 23 23 20 18 14 13 17 16 18 18 22 23 23 26 18 17 14 12 15 23 23 23 29 31 27 33 34 23 6 11 24 36 56

GFSSW_500_spd_063.txt.gz
Wind_Speed
20 21 22 23 24 24 24 22 22 21 21 21 18 23 19 23 28 30 35 40 42 41 43 44 43 42 40 47 52 41 52 54 44 42 34 28 42 50 45 50 44 37 29 26 32
18 19 19 21 23 24 24 23 22 21 19 18 17 17 16 19 23 25 29 33 36 36 37 42 45 44 43 39 40 45 58 58 42 36 46 37 37 43 50 45 41 38 34 34 38
17 17 18 19 20 22 23 23 21 21 20 19 18 17 17 18 19 20 24 28 30 32 35 37 41 44 44 44 43 44 42 45 48 45 37 40 42 41 44 42 37 34 42 33 34
18 19 20 20 20 20 19 19 21 21 20 19 19 19 19 19 19 19 22 24 26 28 31 33 35 36 37 41 41 44 41 40 46 46 51 45 42 53 41 45 42 42 44 44 44
14 15 17 20 22 21 21 20 20 20 19 18 18 19 20 21 17 22 22 24 26 28 30 32 33 35 38 39 42 44 41 42 45 50 55 54 51 49 53 53 40 46 43 49 53
15 16 16 18 20 21 22 22 21 20 21 20 20 20 19 23 15 23 23 24 26 28 30 31 34 36 37 39 41 41 44 45 44 45 49 57 58 58 58 54 50 39 44 48 53
14 16 18 17 17 18 19 21 22 22 21 20 20 21 22 20 20 21 22 23 26 27 28 31 34 36 38 38 40 41 44 45 45 46 47 51 57 57 57 59 59 56 41 45 49
17 17 18 17 16 15 16 18 20 21 23 23 23 23 25 20 23 22 23 24 25 26 28 30 31 33 35 38 40 44 45 45 41 46 46 47 56 48 46 53 62 55 59 47 50
18 19 16 15 16 15 15 14 14 16 20 22 23 26 26 25 24 27 26 27 29 30 31 32 34 37 38 40 39 42 43 45 45 45 47 50 54 44 46 49 50 54 64 57 52
20 19 18 15 14 15 14 13 13 13 15 17 21 26 24 26 24 28 28 29 30 31 33 35 37 38 39 41 41 44 46 48 47 50 50 48 53 52 51 51 51 53 54 59 63
20 20 19 15 15 15 14 13 12 13 13 14 16 21 21 21 23 24 25 27 29 31 33 35 37 39 40 42 46 48 49 51 48 54 60 60 61 56 56 58 57 54 55 57 56
21 20 19 18 15 15 14 13 13 11 15 14 16 16 19 19 22 24 24 26 29 31 33 35 38 40 43 44 48 51 54 53 55 55 59 61 62 58 60 60 59 59 58 57 55
20 19 18 17 16 15 16 15 15 13 15 13 14 15 17 18 19 21 24 26 29 30 33 35 36 38 42 45 49 51 54 56 58 57 59 63 67 63 58 62 62 58 57 59 59
17 19 18 16 14 14 17 16 14 15 14 14 9 10 13 17 20 21 21 22 27 29 32 33 33 36 37 41 46 53 50 54 58 59 63 56 70 68 61 64 64 63 62 62 57
14 17 16 16 15 17 17 18 17 17 19 14 10 15 16 16 19 24 24 23 26 29 31 28 32 36 39 40 34 42 35 41 47 45 60 63 69 73 68 69 66 65 64 61 58
18 17 12 12 15 16 17 21 19 18 19 19 17 15 15 20 21 19 23 28 29 32 27 26 28 36 43 35 24 26 31 36 35 37 52 60 56 71 70 71 68 68 66 62 59
21 16 13 12 14 17 17 17 18 21 19 21 21 21 21 24 24 24 23 23 26 30 29 24 25 32 37 28 21 15 20 27 29 35 35 33 41 57 67 69 71 68 68 60 61
21 18 13 12 14 16 15 18 20 21 22 21 21 20 20 21 20 24 26 23 20 29 32 32 32 34 30 29 30 24 22 25 33 37 39 33 36 39 38 48 59 66 62 57 65
25 21 17 14 14 14 15 18 21 23 20 22 21 22 20 21 24 23 26 19 24 25 30 35 37 35 32 31 32 25 24 23 32 34 42 36 31 29 30 29 36 42 43 49 43
27 24 21 18 17 15 17 20 22 24 23 23 24 23 21 21 21 21 23 19 22 27 32 34 40 32 34 32 20 25 23 22 26 40 35 30 20 28 25 28 30 49 56 46 41
28 26 24 21 20 21 21 21 22 25 26 25 24 24 24 22 22 22 18 21 23 27 30 30 32 27 18 16 21 21 23 23 28 36 31 29 28 24 20 24 33 54 58 48 48
28 26 25 24 24 24 25 26 27 27 27 26 23 22 24 21 19 20 17 19 23 24 27 25 29 24 11 13 16 19 24 25 31 30 24 34 42 29 30 25 18 60 56 43 28
26 26 26 26 25 26 27 27 28 27 27 26 24 22 22 20 21 15 16 19 20 22 25 23 18 19 12 13 13 17 19 28 31 32 27 24 25 29 36 27 9 53 44 33 34
28 26 26 26 26 27 27 29 29 30 30 27 21 21 21 18 20 18 17 19 18 19 22 22 19 23 15 15 15 16 18 20 22 31 27 23 29 36 39 22 9 35 37 36 34
29 27 28 26 28 28 29 30 30 31 30 32 24 24 24 19 17 19 18 19 19 18 22 21 20 26 22 16 15 15 15 23 25 22 18 27 28 32 36 16 20 30 38 33 41
31 29 29 29 29 29 28 29 32 30 32 28 27 23 24 22 17 13 18 23 19 16 17 20 23 24 21 20 20 18 18 18 24 27 27 27 23 25 29 12 15 43 28 38 40
31 30 30 30 30 31 32 31 32 33 29 31 29 25 25 24 20 17 21 24 19 16 16 14 21 24 24 22 19 13 16 13 19 22 28 28 23 27 30 16 7 17 32 40 30

GFSSW_500_spd_069.txt.gz
Wind_Speed
13 15 16 17 18 19 21 22 24 26 26 26 26 25 25 24 24 27 32 35 38 41 44 46 50 49 47 45 50 45 46 42 45 37 48 38 49 53 54 39 43 46 44 37 34
13 14 14 15 16 17 18 19 21 23 24 25 25 25 25 23 23 23 27 31 32 35 39 45 51 49 49 45 47 48 52 45 40 36 40 50 59 51 56 43 38 46 47 41 36
12 13 14 15 16 17 18 20 21 21 21 21 23 24 25 23 23 21 23 25 27 30 36 43 48 51 50 50 50 45 44 50 50 49 41 48 54 51 53 51 42 43 45 45 42
11 11 12 13 13 14 16 18 20 22 21 20 18 21 22 22 24 23 22 22 22 25 28 37 44 49 50 53 50 46 40 41 52 53 48 46 51 57 51 54 47 40 45 46 44
9 10 10 11 13 14 14 17 19 21 22 22 20 19 18 20 21 25 23 21 19 20 25 29 38 44 46 46 46 47 45 43 43 40 49 47 52 57 63 54 50 46 41 48 47
11 10 10 11 11 10 11 13 15 18 20 22 22 22 21 19 23 24 23 23 22 21 23 26 29 35 41 44 46 48 47 47 48 48 47 46 39 47 51 52 51 55 44 44 48
11 11 12 11 11 11 11 12 14 15 17 20 21 24 23 22 23 23 25 24 24 26 24 25 27 30 34 37 41 42 45 46 47 47 48 48 46 40 35 55 60 48 57 44 47
15 13 13 14 13 11 11 13 14 14 14 16 19 22 25 23 21 24 26 26 26 26 28 28 28 31 32 34 37 39 43 44 46 45 44 46 46 41 46 47 67 60 63 61 50
15 18 17 14 14 13 13 14 13 12 13 13 15 16 19 21 25 28 26 25 26 26 27 29 31 33 34 35 37 39 42 44 44 44 45 47 47 45 50 49 50 61 64 65 63
13 15 17 18 16 14 14 14 15 14 13 14 14 14 14 17 23 25 24 28 28 29 29 30 31 32 35 36 37 40 43 45 45 46 47 46 46 46 47 51 51 53 61 69 59
14 13 14 15 15 16 16 16 16 16 16 16 16 15 14 16 19 19 21 24 27 29 30 32 31 32 36 38 39 41 43 45 46 49 49 49 48 47 47 50 53 54 57 61 64
16 15 12 13 14 14 15 16 16 17 17 17 18 17 16 16 18 18 19 22 24 26 26 28 29 32 34 37 38 40 43 44 47 49 53 52 50 49 49 52 55 56 58 59 61
21 17 13 10 12 13 14 16 16 17 17 18 20 18 15 15 16 16 18 22 23 24 25 27 29 30 32 33 36 38 42 45 48 49 51 56 54 53 54 55 55 56 58 60 62
22 20 18 12 11 13 14 15 16 17 20 22 20 16 15 17 21 19 19 21 22 22 23 25 25 27 29 31 34 36 40 43 46 49 53 54 58 55 57 58 59 60 62 62 61
25 22 20 16 14 15 15 16 18 15 19 17 15 16 19 20 23 20 19 21 22 24 21 24 22 25 26 29 31 33 38 41 46 49 54 52 59 58 59 60 61 62 65 65 65
28 26 23 20 17 16 16 16 16 17 21 17 14 18 23 26 24 22 20 19 22 22 17 15 21 23 24 24 24 25 31 37 39 41 49 47 51 53 55 58 63 69 69 70 70
30 27 25 22 20 19 19 18 19 19 20 21 22 24 25 25 27 26 23 21 21 23 15 16 17 17 18 23 28 28 34 44 51 53 49 45 47 48 52 51 61 66 71 73 73
28 28 26 25 23 22 22 22 22 21 21 22 24 26 27 28 30 27 27 24 24 25 21 17 15 16 20 25 29 28 32 38 49 51 51 40 48 46 42 47 48 59 66 69 74
27 25 25 25 24 24 25 24 24 23 20 20 21 23 25 27 28 26 25 26 25 24 23 24 15 13 17 23 29 30 32 37 38 37 42 44 37 38 30 39 41 42 52 61 70
28 27 26 26 25 24 24 23 23 25 24 25 24 24 23 24 25 23 23 28 27 25 24 22 20 13 16 23 29 29 32 32 32 39 37 30 29 26 34 35 38 41 42 43 50
28 27 26 25 24 24 24 25 24 24 25 25 25 26 26 21 20 22 24 25 26 26 24 20 19 15 17 23 26 28 30 31 32 33 31 34 30 24 24 26 27 29 39 43 46
28 28 28 27 27 27 27 25 25 24 25 25 27 29 27 25 21 22 23 25 24 24 21 21 20 18 15 21 25 31 27 30 32 28 30 35 26 25 28 29 29 28 32 38 44
28 29 29 28 27 27 29 29 28 27 28 28 26 25 25 26 26 23 23 24 26 25 21 21 21 21 14 18 23 27 31 30 31 30 30 37 25 26 27 25 25 25 28 29 39
28 30 30 30 30 27 26 29 29 29 28 30 30 29 27 25 25 24 24 25 26 24 24 24 20 20 19 19 22 18 20 31 31 30 27 33 28 24 23 25 29 33 34 24 19
26 29 33 34 36 35 30 29 30 29 29 30 29 31 31 29 27 24 26 28 25 24 24 26 22 21 19 18 21 20 19 22 30 29 34 25 30 27 23 24 26 27 35 11 13
27 26 31 35 36 37 37 33 32 32 34 33 33 31 33 32 31 26 25 27 24 26 24 25 23 21 20 20 23 20 20 23 20 19 22 25 23 25 28 26 19 25 35 2 13
27 25 30 37 37 39 40 39 33 33 33 36 36 34 33 33 32 30 28 24 24 22 28 30 24 26 18 20 23 21 19 16 14 16 19 20 18 18 19 20 24 27 18 15 29

GFSSW_500_spd_072.txt.gz
Wind_Speed
10 11 13 14 15 16 17 17 19 20 22 24 26 26 27 26 27 26 28 28 29 30 32 35 36 43 48 56 55 50 49 47 44 39 44 43 53 47 52 51 47 40 41 45 40
10 10 10 11 13 14 15 16 17 18 20 21 22 24 26 26 26 27 27 27 26 27 30 34 38 40 45 53 57 53 52 46 43 40 49 47 46 50 50 53 49 42 44 44 47
7 7 7 9 11 12 14 15 17 19 20 22 23 23 24 25 26 27 27 26 25 24 27 28 35 42 47 49 58 55 54 47 48 42 46 40 48 63 47 50 49 42 46 33 43
7 6 7 8 10 11 12 14 16 18 20 21 23 23 22 22 25 26 27 26 25 23 24 24 27 34 42 48 54 53 52 50 46 42 47 41 43 61 64 45 49 46 45 39 38
7 6 7 8 9 9 9 10 12 15 18 19 21 23 23 22 21 24 25 24 25 24 21 22 24 30 35 43 51 51 51 51 49 46 44 44 49 48 71 50 48 52 47 47 41
7 8 9 10 10 10 10 11 11 13 15 18 20 21 23 24 23 23 23 24 24 24 24 23 22 24 30 40 50 52 51 53 53 51 48 46 45 51 44 62 49 56 47 51 47
12 10 11 12 13 12 12 10 10 12 14 16 18 20 22 23 24 25 27 24 24 25 26 25 23 23 27 34 44 49 51 52 50 51 52 52 42 42 48 52 64 58 60 49 52
13 12 15 14 13 13 13 13 13 13 14 15 16 17 19 22 25 28 27 26 26 26 26 27 27 27 29 32 35 40 45 48 48 48 49 47 42 40 44 49 56 64 68 57 55
11 13 14 16 17 15 14 15 14 14 15 17 17 16 16 18 23 27 29 27 26 27 28 29 29 30 30 32 34 35 37 40 42 45 46 46 48 43 45 49 43 69 65 72 59
11 14 14 15 18 18 17 16 16 16 17 18 18 17 17 17 22 22 27 31 30 29 29 29 29 30 32 32 34 36 37 38 39 42 42 42 46 45 45 47 45 48 63 64 69
18 16 14 12 13 17 19 18 18 18 19 19 19 19 19 19 20 19 21 25 29 29 30 30 30 32 34 34 34 36 37 39 40 42 43 43 43 44 43 46 46 48 52 50 78
22 20 18 14 12 13 14 16 19 21 21 21 20 21 22 22 21 20 21 23 23 25 27 28 29 32 35 37 36 36 39 41 42 43 45 44 43 45 45 45 49 51 53 56 56
24 21 18 17 14 14 15 15 17 20 21 21 21 21 20 20 19 18 20 22 23 25 27 27 28 29 30 32 34 36 39 41 43 44 47 49 47 46 47 48 51 53 53 53 56
27 26 22 18 16 15 15 15 16 17 18 18 18 20 20 18 20 20 22 23 24 24 25 24 25 25 26 27 31 32 37 40 42 44 45 47 52 49 48 48 52 54 57 56 57
30 26 24 22 20 17 16 16 16 16 18 18 20 21 21 21 20 23 22 24 24 24 22 24 22 21 23 26 29 31 34 36 38 40 45 43 51 53 52 51 52 53 56 60 61
29 27 25 24 23 23 22 20 19 18 17 19 19 20 19 20 23 22 21 23 22 23 19 19 21 22 23 24 27 29 31 33 37 37 42 41 44 48 50 51 56 57 59 63 63
27 27 26 25 23 24 24 23 23 22 23 22 21 20 19 20 23 24 26 24 23 24 19 18 20 22 22 23 27 25 25 31 34 35 35 41 47 46 51 51 52 57 61 64 68
27 27 27 26 25 23 23 23 23 24 24 24 24 25 24 25 26 27 26 25 23 23 22 19 19 21 21 25 25 22 23 26 35 35 35 38 45 49 53 56 57 59 59 62 66
27 27 27 27 25 24 23 23 24 25 24 23 24 23 24 25 25 23 26 26 24 23 24 25 19 18 18 23 25 24 20 25 31 35 38 39 41 49 45 50 49 48 47 52 61
27 29 28 28 28 29 27 25 24 24 25 25 25 24 24 24 25 25 24 26 25 24 22 24 25 17 18 22 24 22 23 27 33 38 43 39 41 42 24 21 25 25 27 33 43
26 27 29 30 30 29 29 27 27 26 27 27 26 26 24 25 25 25 24 26 25 25 24 25 26 17 19 21 21 21 23 28 33 36 41 44 40 30 22 21 22 23 29 30 33
27 26 27 28 30 31 32 31 30 29 30 29 27 27 27 27 26 26 25 26 27 25 26 26 28 21 20 21 20 22 23 27 32 35 39 39 21 20 21 23 26 25 28 26 26
29 29 27 27 28 30 33 34 33 31 31 32 31 30 28 28 29 25 25 26 26 27 28 27 27 25 22 22 23 23 22 26 32 35 35 35 26 22 18 25 29 28 26 29 32
29 30 31 29 29 32 33 32 34 35 31 32 32 33 32 32 31 28 26 28 28 28 28 29 24 25 25 21 24 25 22 26 33 34 36 27 28 15 20 28 29 28 27 31 35
30 30 33 34 36 37 36 37 37 37 35 34 32 33 34 33 34 32 30 29 29 30 29 29 25 25 25 24 26 28 23 25 29 32 36 20 22 14 17 19 22 26 29 25 31
35 35 35 38 41 39 40 40 41 39 37 33 35 34 36 36 37 34 36 30 28 29 32 28 27 26 23 25 28 28 25 29 28 28 28 25 23 21 19 18 21 24 29 26 26
36 37 37 38 39 40 40 39 41 41 38 38 39 39 37 39 38 37 36 33 30 29 28 30 28 26 23 25 32 26 25 28 27 26 28 23 24 20 13 15 16 18 25 29 21

GFSSW_500_spd_075.txt.gz
Wind_Speed
6 6 8 10 11 12 13 14 16 17 18 19 21 23 24 26 26 28 29 28 28 29 29 29 30 32 34 38 42 47 55 56 52 45 46 41 51 49 69 47 49 44 42 41 40
5 5 5 5 7 8 9 11 12 14 15 17 18 20 21 23 24 25 27 29 28 29 29 28 29 31 35 38 43 47 51 57 51 50 49 47 47 53 55 51 47 45 42 40 41
4 3 2 3 5 6 8 9 11 13 14 17 19 21 23 25 25 25 26 28 29 29 29 28 29 31 34 39 43 45 52 49 56 53 49 49 48 46 41 67 46 44 44 39 41
3 2 2 3 4 5 6 7 9 11 13 15 18 20 22 25 26 26 27 27 29 29 28 28 28 28 31 37 42 47 50 51 51 54 54 50 44 48 48 60 50 47 50 43 46
3 3 3 4 4 4 5 6 8 10 11 13 15 17 19 22 25 26 26 28 28 28 27 27 27 27 28 32 34 42 51 51 48 53 54 51 47 44 44 54 58 53 52 49 50
8 7 7 8 9 9 9 10 9 9 10 12 14 15 17 19 21 25 27 26 26 27 27 27 26 27 26 28 30 37 46 49 48 50 52 50 48 48 43 47 61 61 56 56 56
9 8 11 12 13 14 14 13 12 12 12 12 13 14 16 18 20 23 26 27 28 27 27 26 26 25 25 26 28 33 37 44 46 50 51 52 51 47 47 50 50 63 57 62 57
7 10 10 12 15 16 16 16 16 16 15 13 14 15 17 18 19 23 26 29 29 29 29 28 26 26 26 27 28 30 31 36 42 47 51 52 51 50 54 49 45 58 62 59 59
11 10 11 12 14 16 18 18 17 18 17 16 16 17 18 19 20 21 23 28 31 31 29 29 28 29 29 29 29 31 32 33 37 44 49 51 51 48 46 44 42 43 68 63 65
18 16 14 11 10 10 13 14 19 19 19 20 19 19 19 20 20 20 22 24 27 30 31 31 30 29 30 31 32 34 34 35 36 39 42 46 47 45 44 44 42 40 41 71 65
22 18 17 16 14 13 12 13 14 16 20 21 21 21 21 20 20 21 22 23 24 26 28 28 31 33 33 32 32 34 35 37 38 39 41 40 42 42 41 42 41 43 40 45 62
26 23 21 18 16 14 13 13 14 15 16 18 19 20 21 21 21 20 19 19 20 23 24 25 26 30 32 34 34 35 37 37 37 38 40 40 40 42 40 41 41 42 42 42 48
31 27 23 21 18 16 14 14 14 15 15 14 17 17 17 15 16 17 18 19 20 22 23 24 26 28 29 31 32 33 36 39 40 39 40 41 41 40 43 42 44 44 45 47 48
29 29 27 25 22 20 18 17 16 16 17 16 17 17 16 16 17 18 20 21 21 22 23 22 24 26 25 27 31 30 34 35 36 38 38 40 44 40 42 45 47 47 47 49 51
27 27 26 26 25 23 23 22 20 18 20 21 18 18 18 18 18 20 20 22 23 25 23 23 24 23 23 27 29 30 31 32 33 33 35 32 42 41 40 42 44 47 51 53 54
25 25 25 25 25 25 24 23 23 21 19 18 18 18 18 19 20 20 21 20 21 25 25 20 25 24 24 26 28 31 30 31 31 31 33 31 34 41 38 41 42 44 48 54 57
25 24 24 25 25 24 24 25 24 23 24 23 22 20 18 18 20 20 20 21 22 22 22 22 23 24 26 27 28 30 27 29 29 29 31 31 35 35 35 39 44 45 45 49 53
24 24 24 24 25 25 25 24 24 25 25 26 25 24 24 23 23 23 22 21 20 20 21 22 23 25 25 26 30 31 29 27 30 28 29 31 35 31 33 38 47 51 50 50 54
23 24 24 24 24 25 25 26 25 27 26 26 27 26 25 25 25 24 24 23 21 19 21 23 21 22 23 26 30 31 28 26 27 27 30 30 28 30 30 34 43 49 53 55 56
25 24 25 25 24 25 26 27 27 27 28 28 27 26 27 27 27 26 24 25 24 22 22 24 26 18 21 25 29 34 28 25 24 27 26 25 25 27 29 31 40 46 51 53 54
27 26 26 27 27 27 28 29 31 30 28 29 29 29 29 28 28 28 25 27 25 25 24 26 26 21 23 24 31 30 27 26 26 26 28 28 26 29 20 27 33 38 40 41 38
29 30 29 28 28 30 29 32 31 32 32 30 30 30 29 30 30 29 27 29 28 28 27 27 29 24 23 27 29 31 28 28 29 30 30 28 22 24 20 24 33 37 40 34 32
30 31 31 31 30 29 32 36 34 33 33 31 32 30 30 30 32 31 31 29 32 30 31 30 31 27 22 24 29 31 30 29 30 32 26 32 26 28 25 33 38 40 33 35 38
30 32 32 34 33 35 34 35 36 34 33 33 33 31 31 30 32 34 34 34 32 31 32 33 31 26 25 23 28 32 30 30 32 34 29 29 27 18 27 32 38 35 36 39 39
32 33 35 36 36 36 35 33 35 35 33 34 34 33 32 32 33 35 36 38 37 35 34 34 31 29 25 25 29 30 29 29 33 30 37 28 28 29 26 28 29 29 33 37 39
34 35 35 38 36 33 35 33 33 33 33 35 37 36 35 35 38 38 40 39 37 33 35 34 32 30 26 23 28 33 30 28 30 32 35 34 29 30 32 29 25 24 24 26 33
32 34 34 36 37 34 34 34 34 33 31 35 39 38 38 41 44 43 41 38 37 36 31 32 30 29 24 23 28 36 23 30 30 29 32 34 32 32 32 32 26 26 27 24 29

GFSSW_500_spd_078.txt.gz
Wind_Speed
1 1 3 5 7 8 10 11 13 14 16 17 18 20 21 23 25 27 29 30 30 31 31 32 32 32 34 35 35 37 38 38 42 50 46 49 50 51 51 48 60 49 45 45 46
4 2 3 3 3 4 5 7 9 11 12 14 15 17 18 20 21 24 26 28 29 31 32 32 33 33 35 36 37 38 40 36 36 44 50 52 55 56 48 50 64 49 49 47 49
8 7 5 3 2 3 5 7 9 11 13 14 15 17 19 21 23 24 26 27 29 30 31 32 32 33 35 36 37 37 38 38 40 42 43 54 57 52 53 50 41 68 57 51 51
6 6 4 3 2 2 3 4 6 7 9 10 12 15 18 21 24 25 27 29 30 30 31 32 32 33 34 34 38 38 39 41 43 43 44 45 55 56 51 52 51 48 69 57 58
4 3 1 1 1 2 4 4 6 7 9 10 12 15 18 19 21 23 26 29 31 32 32 33 33 33 33 34 35 35 37 38 43 46 47 47 50 57 53 52 53 47 58 62 60
5 3 3 5 7 8 8 9 10 10 11 11 12 14 16 18 20 22 23 25 27 29 30 32 32 33 33 32 32 36 33 35 41 45 50 51 47 54 55 56 52 37 47 65 64
4 7 8 9 11 12 12 14 14 14 14 13 14 14 15 16 17 19 20 22 25 28 30 29 29 32 32 33 33 32 30 32 35 40 47 51 51 49 54 58 51 48 46 62 64
14 8 8 9 11 13 16 17 18 18 17 16 15 16 15 16 18 18 18 21 24 27 30 31 30 31 31 33 33 32 31 31 33 34 38 44 46 51 59 58 53 47 42 40 67
16 14 12 9 7 8 9 11 13 16 19 19 19 20 20 20 20 20 19 20 20 23 27 30 32 31 31 32 33 34 32 36 34 30 36 36 41 50 53 54 52 50 48 48 56
20 17 16 13 11 11 10 11 11 11 14 17 20 21 22 21 22 21 21 21 21 21 23 26 29 32 33 31 30 37 32 37 34 38 34 36 39 44 50 52 52 51 50 48 48
26 20 18 15 14 13 12 11 11 12 12 14 16 18 19 21 22 23 23 23 23 22 22 23 25 28 34 35 35 35 36 36 37 39 39 37 37 39 44 49 51 51 47 44 43
26 26 24 20 18 16 13 12 11 10 11 12 13 15 16 17 17 16 17 18 18 19 19 21 23 28 29 31 33 36 38 37 40 38 40 39 40 39 39 42 45 46 45 42 45
23 24 24 23 22 20 18 15 12 10 10 12 12 13 13 15 17 17 18 19 20 22 23 22 26 25 28 29 30 32 35 39 41 41 40 42 39 40 40 41 43 44 44 44 45
20 20 21 21 21 21 20 19 17 17 16 12 11 11 13 14 17 18 18 20 21 23 24 25 27 27 27 27 30 31 35 35 37 38 38 42 41 42 38 41 43 44 44 43 46
20 18 18 19 19 20 20 20 20 20 19 18 17 17 15 14 16 17 19 21 22 23 22 25 28 29 29 27 32 31 35 34 35 35 35 32 39 36 37 37 40 41 44 46 48
20 19 18 19 18 19 20 20 21 21 19 19 19 19 19 18 18 19 20 21 20 23 25 20 29 30 29 30 31 33 33 33 33 33 33 28 30 29 36 27 35 38 39 43 46
22 21 20 20 20 19 19 20 21 21 22 22 21 20 21 22 21 20 21 21 21 24 22 23 24 27 29 31 32 32 33 29 23 24 22 35 27 29 32 28 32 37 38 40 43
22 23 22 21 21 21 21 21 20 22 23 23 24 23 22 24 23 23 23 22 21 24 23 24 22 27 26 29 30 27 32 29 25 21 20 32 32 25 25 30 34 39 41 42 44
22 23 24 24 23 23 22 23 23 23 24 25 25 25 25 26 27 27 26 24 26 23 25 26 24 26 27 29 31 31 37 35 37 36 35 32 27 25 24 30 35 38 41 43 45
24 23 25 25 25 25 24 25 26 26 28 27 27 26 25 28 28 30 29 27 30 27 27 29 29 27 23 26 29 33 32 34 31 33 32 27 24 18 20 22 28 34 42 45 49
25 25 25 26 27 26 26 27 27 31 32 30 28 29 25 26 28 30 30 32 31 33 32 31 31 26 27 24 27 33 32 34 32 34 31 28 17 27 20 23 30 34 37 41 44
27 28 27 27 29 30 31 31 32 33 34 33 31 30 28 27 27 28 29 33 34 35 35 36 34 31 29 27 29 30 33 32 33 29 33 37 32 25 25 27 28 31 31 36 40
30 31 31 30 29 28 31 33 31 31 31 33 30 30 29 26 31 27 28 32 35 36 37 38 36 35 32 29 27 31 32 33 37 36 38 37 34 29 26 30 32 34 36 37 38
29 30 30 30 29 28 27 27 31 29 29 30 28 30 32 29 29 31 34 37 36 38 39 39 38 37 33 27 30 30 33 35 38 42 38 40 35 28 27 34 35 33 36 38 39
31 29 30 33 32 29 27 28 29 28 28 30 28 29 32 33 34 36 38 41 42 43 43 43 41 35 34 34 29 32 33 34 36 40 40 33 35 29 33 36 33 33 33 34 34
33 31 29 32 33 32 32 29 30 29 30 30 30 32 34 35 39 40 43 43 46 42 40 39 37 33 32 32 28 28 26 27 34 34 37 36 38 27 36 37 35 34 34 32 33
35 34 30 32 32 31 32 32 31 29 27 32 32 33 36 38 40 40 43 44 43 37 33 31 29 28 26 26 28 30 20 26 29 31 34 38 36 37 39 38 40 38 35 34 36

GFSSW_500_spd_084.txt.gz
Wind_Speed
10 7 6 5 6 9 12 14 16 18 19 21 21 22 22 24 25 27 28 28 29 29 31 32 32 33 34 32 33 32 34 33 29 28 26 23 22 39 45 49 44 44 50 45 51
12 9 9 7 6 5 6 7 9 11 13 15 16 16 17 19 21 23 23 25 26 28 30 31 32 34 34 35 36 37 37 34 31 29 23 23 23 32 42 47 43 46 43 43 52
10 8 7 7 6 5 5 4 4 5 6 8 10 11 13 15 19 15 20 21 23 24 26 29 31 32 33 35 37 38 39 37 37 35 29 29 29 25 34 45 50 39 34 43 42
11 9 7 5 3 2 1 2 4 6 8 9 11 12 14 15 18 16 17 20 23 25 27 28 30 32 33 35 36 38 39 41 41 41 41 41 34 34 33 43 46 42 35 41 48
7 6 5 3 2 1 1 2 3 5 7 9 10 12 13 16 14 18 18 20 22 24 27 30 32 34 36 36 37 38 39 40 42 45 48 46 48 46 44 47 48 47 47 38 40
6 5 4 4 4 5 6 6 8 9 10 12 14 16 17 19 17 18 19 20 21 23 25 27 31 34 34 36 38 40 42 42 45 44 45 50 49 46 48 46 48 53 52 43 39
14 11 7 3 3 5 6 8 10 12 13 15 16 17 19 21 22 19 19 20 20 21 23 24 25 28 32 35 36 41 44 44 43 42 44 46 49 47 48 49 49 50 52 55 40
15 13 12 9 7 4 3 4 7 9 11 14 17 18 20 20 22 22 23 25 25 25 25 25 25 26 29 32 34 37 38 42 40 42 43 44 48 45 46 47 47 48 49 47 59
16 14 12 10 8 7 5 4 4 5 7 8 10 13 14 19 21 23 26 27 26 27 27 28 28 28 28 30 32 36 38 37 37 33 30 34 48 44 41 41 43 47 49 45 57
16 15 14 13 11 8 5 4 4 4 5 6 7 8 8 12 16 19 21 23 24 25 27 28 29 28 29 30 31 31 20 25 25 26 22 38 48 46 43 40 42 46 47 50 54
13 13 13 12 11 10 9 8 8 8 8 7 8 9 9 10 11 13 16 18 20 21 22 24 24 26 27 29 30 32 36 41 40 29 33 38 41 42 46 43 41 45 47 47 45
12 12 11 11 11 11 11 11 11 10 10 10 11 12 13 13 13 14 15 16 18 19 20 22 23 24 27 28 31 33 33 34 36 43 43 46 51 52 52 50 42 43 44 44 43
11 12 12 12 12 12 12 12 13 13 12 13 12 13 13 15 17 17 17 18 19 19 20 22 22 25 29 28 31 32 34 35 37 38 38 42 52 52 48 46 46 46 46 48 46
13 13 14 13 14 14 15 15 15 17 17 15 14 13 15 16 16 19 19 20 19 21 22 22 22 26 28 29 31 33 32 32 36 31 36 33 45 42 39 34 29 42 47 47 45
14 15 16 15 17 17 17 18 18 20 21 17 16 17 18 19 20 20 17 23 22 24 26 21 25 27 30 28 30 31 33 37 39 41 37 41 36 42 33 34 33 31 37 45 44
18 17 17 17 17 18 19 19 20 21 23 26 24 20 21 23 23 24 22 22 25 26 28 27 26 30 29 31 33 32 35 35 36 31 35 36 30 35 23 27 30 30 40 48 42
21 19 20 20 18 19 20 21 20 20 24 21 25 26 25 25 27 29 29 28 28 30 29 28 28 28 31 35 35 30 33 32 32 27 35 25 32 34 22 31 26 34 41 41 36
21 21 20 20 20 21 22 22 20 19 13 30 29 27 28 27 29 31 31 32 30 32 35 35 32 23 25 29 35 30 29 30 39 38 31 25 35 27 32 17 16 34 40 44 41
22 22 21 22 21 21 22 21 23 24 30 27 31 31 27 29 25 26 32 33 33 34 37 39 40 29 32 28 32 36 41 39 35 40 44 40 35 33 36 30 33 28 34 34 39
23 22 23 23 23 23 24 23 25 25 32 28 31 31 32 30 33 32 30 32 32 31 35 34 45 38 38 36 35 40 40 39 39 46 45 39 31 28 29 33 33 37 39 34 35
26 24 25 26 25 25 25 24 26 26 32 30 29 32 33 35 34 33 35 35 40 39 35 43 42 39 40 36 32 38 37 37 36 36 43 42 39 30 27 30 38 33 31 34 33
28 30 25 27 27 27 25 27 27 27 29 30 32 30 32 33 34 33 34 34 34 33 37 42 48 49 44 39 33 37 38 46 35 40 41 38 40 29 34 39 31 31 33 35 34
32 33 29 29 28 29 30 27 30 29 29 31 31 31 30 31 34 31 32 31 32 35 40 44 49 50 50 39 33 35 40 45 47 47 42 42 38 26 36 34 35 33 20 28 30
35 34 38 30 31 33 32 28 30 31 32 32 28 31 33 30 30 32 31 29 33 37 45 46 50 51 46 39 39 43 45 39 35 45 36 37 36 31 31 40 37 41 37 32 33
38 37 35 35 36 37 36 30 29 30 33 33 31 30 30 31 30 30 31 32 35 40 47 51 50 48 46 44 35 34 42 42 49 37 33 37 40 40 39 35 40 36 46 33 44
36 36 39 38 38 36 35 31 33 32 34 30 34 30 29 30 32 30 32 33 36 40 41 46 49 48 45 38 32 30 25 31 33 36 37 36 35 28 23 27 40 45 45 43 44
38 38 40 36 37 39 35 34 32 33 30 33 33 31 27 29 28 30 32 35 38 41 38 29 26 25 20 18 19 19 16 8 16 20 22 28 29 26 25 34 39 32 44 48 47

GFSSW_500_spd_087.txt.gz
Wind_Speed
13 9 7 7 9 12 13 15 16 17 18 18 18 19 19 19 19 20 21 23 24 25 27 27 27 28 29 28 30 32 32 29 27 28 25 26 27 28 34 39 35 35 38 35 45
14 11 9 8 7 7 9 11 13 15 16 17 17 19 20 20 20 19 20 21 23 26 28 29 30 31 32 30 32 34 33 31 29 29 29 28 27 17 27 33 40 37 45 47 47
12 10 10 9 8 7 6 5 5 6 8 9 11 13 14 15 13 13 16 16 18 21 22 24 27 30 32 34 34 35 35 34 34 34 33 33 33 30 31 32 37 44 40 33 37
11 10 9 8 7 5 3 2 1 2 4 5 7 8 10 10 9 13 14 16 17 19 21 23 25 28 30 32 33 36 37 39 38 38 39 38 38 40 38 39 35 42 46 44 33
8 7 6 5 4 3 2 0 1 3 4 5 7 8 9 9 8 14 14 16 17 19 22 24 26 29 31 32 33 35 37 38 39 40 42 42 45 45 42 43 44 51 50 49 40
8 5 3 3 3 3 3 4 5 7 8 10 11 12 14 13 14 16 18 19 19 20 21 22 26 29 29 31 35 35 38 40 41 42 44 46 46 42 43 42 50 53 56 51 43
13 12 10 6 2 3 5 7 8 10 11 13 14 15 16 15 16 19 19 21 20 21 21 24 23 24 26 28 29 35 38 38 39 41 43 40 44 44 44 40 43 51 56 55 52
12 10 9 9 8 6 3 2 5 8 9 11 13 14 16 17 18 18 21 22 23 24 25 26 26 27 27 28 28 30 31 34 32 34 37 39 46 42 44 47 46 47 47 49 51
11 10 9 8 5 5 4 3 1 2 4 5 7 9 8 15 15 17 20 22 24 26 27 28 29 29 30 30 30 30 30 31 28 31 34 26 43 42 40 47 50 50 50 50 51
9 9 9 8 6 5 4 3 2 3 4 5 5 5 7 7 12 12 15 17 19 20 22 25 27 27 28 31 30 31 33 33 34 32 26 25 33 36 40 43 46 46 46 47 51
9 8 7 7 8 8 8 8 7 6 7 7 8 8 9 9 11 12 13 14 16 17 20 22 23 23 25 28 29 32 35 38 36 38 36 39 37 41 43 50 47 47 46 49 50
11 11 10 9 9 9 10 10 11 11 11 11 11 11 12 12 13 15 17 17 18 18 19 21 19 22 26 27 29 30 33 34 33 32 33 44 47 47 48 48 51 49 45 43 43
15 15 14 14 14 13 14 14 14 14 12 14 15 14 16 14 14 15 18 19 20 21 22 23 20 24 26 28 29 29 32 34 37 36 40 39 50 53 54 56 57 54 52 45 46
15 16 18 18 18 17 17 18 18 19 19 15 15 17 16 18 18 20 20 20 22 22 25 26 23 26 27 30 31 32 29 35 39 42 44 39 49 45 45 49 50 47 43 44 43
17 17 18 19 19 20 19 21 21 22 22 20 14 18 20 19 21 22 21 23 23 25 27 22 27 28 31 29 31 36 30 34 38 43 45 41 42 45 38 40 31 25 32 38 37
20 19 19 20 20 21 20 20 21 21 23 24 24 23 20 19 22 26 26 26 28 29 30 28 28 31 32 33 29 29 36 42 41 39 48 37 28 41 25 23 30 26 28 30 37
21 23 22 20 20 21 22 22 20 19 20 19 23 29 21 23 27 28 30 31 28 33 32 32 31 30 31 36 33 31 32 42 46 46 50 36 33 40 27 32 32 36 35 34 45
19 21 24 24 21 21 22 22 20 20 22 27 30 34 33 26 28 28 29 33 32 32 38 41 39 32 26 26 27 37 39 35 48 50 48 43 49 41 32 33 30 33 22 27 35
22 23 22 24 25 25 23 23 24 23 27 31 33 34 33 30 34 34 33 33 34 36 40 45 45 37 35 34 36 39 39 44 43 50 49 48 44 39 32 35 42 43 21 25 35
27 24 24 24 25 28 28 27 27 27 31 35 34 27 31 30 34 37 37 37 41 40 43 45 48 40 35 35 38 44 42 40 42 51 51 49 53 47 42 38 31 33 34 28 33
32 29 27 25 25 26 26 28 30 32 35 37 34 34 31 32 34 35 36 35 40 43 43 46 50 46 41 40 38 36 47 51 49 53 55 60 48 50 33 38 38 39 36 38 32
33 35 33 32 28 28 27 27 28 28 32 35 37 37 35 35 35 35 35 33 35 38 39 35 44 45 44 43 48 41 41 40 46 48 46 47 53 48 30 31 33 37 37 34 37
37 38 37 37 35 34 30 30 32 32 34 34 37 38 37 36 38 34 33 30 34 35 35 36 40 46 47 45 42 41 42 46 49 54 54 52 52 43 33 38 35 38 40 34 38
35 35 38 36 40 36 35 33 33 32 34 35 38 37 38 37 37 37 32 30 32 33 36 39 43 46 50 52 49 45 41 36 46 54 40 35 52 43 39 32 32 32 45 35 41
32 32 32 36 36 39 39 41 37 34 34 34 35 35 37 37 36 34 31 29 30 29 38 42 46 47 49 46 41 44 42 45 40 45 54 50 33 29 26 34 36 38 40 42 44
28 28 30 30 35 36 38 40 40 37 36 31 35 34 35 35 35 31 30 30 28 31 35 42 45 40 33 30 35 37 25 18 20 27 37 48 53 37 41 34 37 37 34 42 46
28 28 27 25 29 32 34 37 37 39 34 34 34 34 33 34 31 31 30 24 28 34 37 35 26 19 13 17 17 7 11 14 20 13 15 22 25 27 29 31 34 34 33 38 42

GFSSW_500_spd_093.txt.gz
Wind_Speed
6 4 7 13 19 20 20 20 19 19 20 20 19 18 18 18 18 19 21 22 24 24 24 25 25 25 27 28 29 31 32 28 26 28 24 35 41 44 46 46 48 48 45 45 53
12 9 4 4 11 16 19 20 21 20 20 22 22 21 21 21 21 21 21 21 23 24 24 26 26 26 27 29 28 29 27 26 29 30 27 34 35 41 43 46 47 49 52 43 49
11 10 10 7 5 8 11 14 17 19 20 20 21 22 22 23 24 23 23 23 23 25 25 26 27 29 30 30 30 30 28 31 30 32 30 34 35 38 39 41 44 48 51 49 48
8 8 7 6 6 6 7 9 11 13 15 16 17 19 20 21 22 23 23 23 23 24 25 24 24 25 26 28 32 32 32 33 32 35 35 35 37 38 39 36 40 39 41 45 46
4 3 3 3 4 4 5 6 7 8 10 10 12 13 14 16 16 19 20 19 20 21 21 21 22 22 23 23 26 26 28 32 31 34 36 35 36 37 38 40 41 42 41 43 45
11 8 2 2 4 5 6 7 7 8 9 10 11 11 12 13 17 16 16 18 18 19 19 21 22 22 23 23 29 32 31 33 34 33 34 34 31 34 32 38 42 42 42 43 46
7 7 7 6 4 1 5 9 10 11 12 13 14 15 15 15 17 19 18 19 20 21 22 22 22 24 23 26 29 29 31 31 32 33 35 39 41 38 30 35 40 39 41 43 46
7 5 3 1 2 3 2 1 1 4 7 10 14 16 17 19 22 23 21 22 23 24 25 25 26 27 27 29 30 30 32 29 28 32 34 41 43 40 42 44 46 49 51 51 51
11 9 7 5 4 3 2 3 4 4 4 5 6 7 9 15 19 21 23 23 24 26 27 28 29 30 31 31 31 33 36 36 34 35 39 41 40 38 39 43 43 44 46 48 51
14 14 12 11 9 8 7 7 7 7 8 8 9 10 10 11 12 14 18 17 19 21 23 25 25 25 27 29 29 33 34 35 37 36 41 42 43 42 41 41 41 40 39 45 51
16 16 17 16 15 13 12 12 11 12 11 11 13 13 14 16 16 16 18 19 19 20 23 22 21 22 27 27 28 29 32 32 31 32 37 39 41 39 40 41 41 42 42 43 44
18 19 18 19 19 19 18 17 16 15 17 13 16 18 15 18 21 20 19 21 22 25 26 24 23 29 29 29 30 30 32 30 30 31 37 35 38 39 39 41 42 45 45 45 47
19 21 21 20 19 21 22 23 20 19 20 22 21 21 21 22 23 24 23 23 24 26 27 26 26 30 31 32 34 32 35 34 36 34 39 40 42 35 36 38 39 40 42 43 42
19 18 22 22 21 22 24 22 21 22 22 24 26 28 27 26 26 27 27 26 28 29 31 24 30 31 33 31 35 36 35 40 41 42 42 41 47 38 35 33 36 37 40 44 42
23 21 18 20 21 23 25 25 24 23 24 25 26 27 28 27 26 28 30 31 32 32 34 29 32 36 35 33 35 39 37 41 43 47 48 46 48 47 40 33 32 35 39 39 43
26 26 24 22 19 20 23 25 26 26 26 27 28 27 26 30 30 33 34 35 35 35 38 30 36 37 38 39 38 40 44 45 46 48 56 47 49 54 45 39 34 35 36 40 44
32 28 27 26 24 24 23 24 26 27 30 33 32 30 29 30 30 31 31 32 34 39 39 38 35 37 41 43 37 41 44 46 50 50 56 51 56 57 50 40 38 38 40 41 44
34 32 30 28 28 27 26 27 26 30 35 36 35 34 32 32 32 33 34 34 39 41 42 43 41 33 35 38 37 35 38 42 51 54 56 52 57 53 50 47 47 42 41 41 43
32 35 36 34 32 30 30 29 30 32 31 35 36 36 37 37 36 36 37 37 42 44 47 49 49 45 41 36 36 38 41 46 50 51 56 56 56 54 56 58 53 47 44 47 44
32 33 33 33 32 33 33 32 31 30 30 32 35 38 38 39 41 43 42 44 44 49 50 50 53 49 48 47 42 44 48 51 50 56 60 57 57 57 59 58 54 54 55 58 58
27 31 33 35 33 34 34 33 34 34 32 33 34 38 38 38 38 39 42 43 45 46 46 51 54 54 53 50 46 51 54 50 50 55 58 60 59 59 56 54 54 54 55 43 39
22 23 22 26 25 28 32 32 32 32 32 34 33 37 38 36 38 39 41 41 43 41 42 44 47 49 47 45 45 44 44 44 44 45 48 52 60 56 52 53 51 50 46 45 43
24 23 22 23 23 22 22 25 26 28 28 29 29 31 33 32 38 36 37 38 40 36 43 42 45 44 43 42 43 43 42 42 46 49 53 55 61 53 49 48 50 46 45 56 50
23 24 25 24 25 24 23 24 25 28 29 30 32 34 35 33 34 33 33 35 37 38 38 43 42 40 44 43 39 39 39 41 46 52 53 55 52 42 44 41 39 44 39 34 35
24 24 26 28 27 28 29 28 28 30 31 29 29 32 33 33 32 33 34 32 33 37 37 41 42 42 41 38 41 41 39 42 39 37 41 28 21 22 26 28 26 28 31 29 27
26 25 26 28 29 32 34 33 34 32 29 28 30 31 32 33 30 28 34 34 36 35 36 38 37 37 34 35 34 35 36 33 31 27 20 15 19 24 25 25 22 22 24 32 38
27 28 27 30 32 33 36 37 38 37 31 32 30 28 28 28 28 29 31 32 32 32 32 32 34 34 25 29 29 27 26 26 23 21 20 19 18 24 23 23 23 27 29 27 32

GFSSW_500_spd_096.txt.gz
Wind_Speed
7 3 3 12 19 21 21 20 21 22 22 22 21 20 20 20 23 25 25 24 23 23 23 26 28 28 28 29 32 34 35 33 32 33 30 36 43 44 46 44 48 50 52 52 49
14 9 4 4 11 17 19 20 20 20 21 22 21 21 20 20 21 21 22 23 24 25 24 25 26 26 27 28 28 29 28 28 29 33 33 38 44 45 48 48 47 47 50 49 49
11 11 10 6 4 8 13 17 19 20 20 20 21 22 22 22 22 22 22 22 23 24 25 26 26 26 26 26 26 26 26 29 30 30 32 36 36 40 45 45 45 46 47 49 48
7 8 7 6 5 3 6 10 13 16 18 19 20 21 23 23 24 24 25 25 24 24 24 25 26 25 26 27 28 28 29 30 29 31 31 33 34 34 37 36 41 43 43 45 49
10 4 2 2 2 2 4 5 8 11 14 17 19 20 21 22 22 25 26 26 26 26 25 25 24 22 24 24 26 27 27 28 28 31 31 31 32 34 36 38 38 40 42 43 44
13 11 5 3 4 5 5 6 7 8 9 11 13 15 16 17 19 21 22 22 22 23 22 23 23 23 26 26 29 29 30 33 32 31 35 35 34 38 37 40 39 40 41 42 43
8 9 8 6 2 4 9 11 11 11 12 13 13 14 15 16 20 20 19 19 21 21 22 24 24 26 24 27 29 30 31 30 31 31 34 38 36 37 40 42 42 43 43 42 43
9 7 7 6 6 4 2 3 6 10 15 18 18 19 18 21 22 21 21 23 24 25 25 26 27 27 27 29 30 31 33 32 33 35 34 40 38 34 42 44 45 45 46 47 46
13 11 9 9 7 7 7 7 6 6 7 8 10 13 16 21 23 23 26 27 28 28 29 28 29 29 29 31 33 34 38 38 37 38 39 42 43 40 39 42 42 43 46 49 48
15 15 15 13 12 11 10 10 11 11 12 12 11 12 13 14 15 18 18 19 22 23 24 24 25 25 27 30 32 36 34 33 32 33 38 40 40 43 43 41 40 38 40 43 43
17 16 16 17 17 16 15 15 15 15 15 15 15 15 15 17 17 18 19 19 19 20 22 22 20 20 27 28 28 29 29 29 28 27 36 32 34 36 37 37 39 44 45 44 43
19 17 18 18 19 20 20 20 20 19 22 17 20 20 17 21 22 21 22 22 23 25 26 25 23 30 29 28 30 31 31 28 29 29 40 31 35 34 34 33 34 36 38 39 41
21 19 16 19 19 21 22 21 22 23 23 27 24 25 23 24 24 24 24 27 27 27 28 26 27 32 31 32 32 33 33 34 38 35 41 39 43 34 36 36 35 37 36 37 39
23 22 21 19 18 21 23 21 23 23 24 28 29 29 29 28 29 29 30 29 30 31 31 26 32 33 36 32 36 37 35 41 40 43 43 41 52 37 35 38 36 36 39 41 43
26 24 25 23 23 22 23 23 24 23 25 28 29 29 30 28 28 29 29 30 32 34 34 31 32 36 36 36 39 39 40 43 46 48 51 47 48 51 41 38 32 34 41 45 45
30 26 28 26 26 27 26 23 23 24 27 29 29 29 28 28 29 30 31 31 34 37 37 32 37 38 37 39 41 43 44 46 48 50 55 48 49 54 48 43 37 36 41 46 46
30 29 29 32 30 30 29 27 26 26 27 30 31 31 30 32 33 34 34 33 31 34 34 32 33 36 39 41 38 42 43 47 50 50 53 47 54 54 51 46 44 43 40 40 43
31 30 29 30 33 34 33 31 30 29 29 28 32 34 33 34 35 37 36 35 35 37 38 41 40 37 39 42 44 40 40 45 51 52 51 50 56 52 52 49 47 45 44 43 44
23 26 30 29 31 32 33 32 32 31 31 31 30 34 36 34 35 35 36 36 37 37 41 44 42 41 39 41 43 41 40 41 48 51 54 53 55 56 54 53 53 51 51 51 51
23 23 22 24 29 31 29 28 29 30 31 30 30 32 34 35 37 38 39 38 39 44 46 47 51 49 43 46 47 46 48 49 49 52 57 53 54 52 53 55 54 52 52 52 53
20 21 20 22 23 24 21 23 25 24 27 25 28 29 27 31 37 40 42 39 42 44 43 44 47 48 46 41 43 43 47 50 51 56 58 57 56 53 54 52 52 55 58 60 63
21 21 21 21 20 20 20 21 21 21 23 27 29 30 30 30 32 34 34 37 37 38 41 42 45 46 43 41 42 41 40 43 46 48 49 51 54 50 52 52 56 56 56 56 54
20 20 20 20 20 19 21 21 22 23 25 25 28 29 30 33 35 32 32 35 35 36 39 39 42 44 45 44 44 44 44 42 40 41 47 49 51 52 48 50 48 50 41 36 39
21 22 22 20 22 23 24 25 27 28 27 28 31 33 32 32 32 33 32 34 34 35 34 37 37 37 40 42 43 45 44 40 41 48 46 49 47 41 43 40 30 28 30 34 36
22 24 25 24 24 26 26 27 29 31 34 36 36 36 35 34 33 34 34 33 32 33 36 36 40 39 40 40 41 42 41 41 44 41 44 35 39 33 26 24 26 29 30 28 29
25 25 26 27 28 29 31 31 34 34 36 37 42 39 36 37 36 31 33 31 29 31 34 37 38 39 36 37 37 37 36 35 31 30 32 31 26 23 23 20 21 24 27 28 31
28 29 29 30 30 31 32 34 35 36 37 42 43 37 35 35 33 30 28 27 30 30 32 33 33 34 30 34 35 30 25 27 30 29 28 27 25 24 26 28 28 30 34 34 29

GFSSW_500_spd_102.txt.gz
Wind_Speed
11 10 3 9 16 21 25 24 22 21 21 21 20 20 21 21 23 24 26 28 31 34 34 36 37 38 38 38 38 39 41 39 38 38 40 44 42 47 45 41 42 44 45 42 39
13 8 7 4 9 14 19 21 22 21 19 19 19 19 19 19 21 22 24 26 26 28 29 32 35 35 36 36 37 38 39 38 40 42 43 44 42 42 44 48 47 45 42 43 43
11 10 6 7 6 8 12 16 18 19 20 20 19 19 18 18 20 20 22 23 25 26 25 27 31 32 34 34 34 35 34 37 38 39 40 41 41 44 44 45 46 49 46 42 42
10 7 6 5 7 8 9 12 14 15 16 17 17 18 18 17 19 19 19 21 22 23 24 26 26 26 27 29 30 31 32 33 35 36 34 35 37 38 41 41 44 45 48 44 42
8 8 3 3 4 7 9 12 13 14 15 16 17 17 17 17 18 19 19 19 19 20 20 21 22 24 25 26 27 28 28 29 31 32 32 33 34 37 37 38 39 40 41 44 42
5 4 4 1 4 5 7 9 12 14 16 17 18 19 19 19 19 20 20 20 21 21 21 22 22 22 23 24 25 25 27 28 30 32 31 32 32 32 35 37 37 39 40 42 42
4 4 2 1 1 4 9 10 10 11 12 14 16 18 19 20 21 21 21 22 22 23 24 24 25 26 25 27 26 26 27 26 27 28 29 30 29 31 36 37 39 39 41 43 43
5 8 8 7 6 5 5 7 13 16 15 15 15 16 16 18 19 19 19 20 21 22 22 22 23 23 25 24 25 26 26 26 28 29 29 30 29 33 32 35 37 39 41 43 45
12 8 12 13 12 11 11 10 9 9 12 17 20 21 20 20 19 19 20 21 21 22 21 22 23 23 25 25 28 28 28 29 29 30 32 33 34 32 33 35 37 37 38 40 42
11 11 11 16 17 17 16 15 14 14 13 13 13 15 15 18 21 24 26 26 26 26 26 25 26 27 28 30 30 36 32 33 32 35 37 38 39 37 37 40 42 42 41 42 43
16 13 11 10 17 18 20 20 18 17 18 17 18 17 18 17 17 17 17 19 20 22 25 29 32 32 35 38 38 37 35 33 30 32 35 34 35 34 31 34 34 35 38 38 40
20 20 15 12 10 14 20 21 22 23 23 22 21 23 21 21 21 21 21 21 22 22 23 23 24 27 29 29 29 28 27 28 29 34 38 33 35 35 32 31 33 33 33 33 36
21 19 20 15 15 14 13 17 24 23 25 26 26 27 24 24 25 25 25 25 25 26 26 27 29 29 29 30 31 30 31 34 35 37 39 35 39 37 34 34 36 35 34 37 39
18 20 22 17 18 16 17 16 16 20 27 27 28 29 29 30 30 30 28 29 28 29 31 30 31 32 33 32 35 33 36 37 37 36 39 42 43 37 36 40 35 36 38 40 44
17 20 20 19 18 18 18 16 18 19 22 25 30 30 30 30 30 32 32 33 33 34 34 32 34 34 32 34 37 30 38 36 37 38 40 40 45 42 40 39 35 39 42 47 46
15 14 15 19 19 18 17 17 17 19 24 23 25 29 30 30 32 32 31 33 34 34 33 30 32 30 31 36 37 36 36 38 40 42 45 39 43 43 41 38 31 35 39 44 47
13 14 12 9 13 16 17 17 17 18 20 24 24 30 32 32 34 37 36 34 33 33 32 31 33 32 34 37 37 38 38 40 39 35 40 34 41 42 42 37 35 32 41 45 45
13 12 10 11 11 8 7 11 15 18 20 18 18 23 29 31 32 32 31 33 36 38 38 37 33 38 39 38 37 37 36 37 42 40 40 37 43 40 51 46 41 44 39 41 43
12 11 11 10 10 7 12 10 6 7 10 10 11 11 15 21 23 23 25 26 30 32 34 35 34 38 36 34 35 35 39 38 47 47 52 47 47 47 45 47 45 41 41 44 43
11 10 10 10 10 10 9 9 8 7 7 8 9 9 11 11 12 14 20 25 29 31 32 33 38 35 36 38 36 38 40 44 43 48 49 46 37 35 46 50 53 46 45 45 45
10 9 10 11 8 8 9 9 9 10 10 8 8 9 10 9 10 14 16 21 25 30 33 40 44 40 42 40 39 38 42 40 42 44 47 47 40 42 45 50 50 51 50 48 46
14 14 12 10 10 10 9 10 11 11 13 13 12 14 14 14 16 20 19 24 25 29 33 36 38 37 36 35 37 37 37 37 41 42 43 46 47 43 50 50 47 48 49 49 47
16 16 16 15 16 14 13 13 14 16 17 17 17 17 18 19 23 22 24 28 30 32 35 36 40 42 41 37 37 38 36 37 38 42 41 43 43 45 44 45 47 47 48 50 48
15 16 16 17 17 19 20 19 18 20 20 22 22 23 24 25 28 29 31 34 34 34 36 39 39 41 41 40 40 40 37 37 40 45 42 44 41 38 42 46 47 46 49 48 45
17 17 16 17 16 17 18 20 21 22 22 23 24 25 27 29 32 34 37 36 38 35 35 37 39 37 37 37 38 40 37 37 41 40 42 39 39 38 41 44 51 44 40 41 41
20 20 20 19 19 18 18 20 20 22 24 25 25 27 27 30 33 34 39 39 38 35 33 31 30 30 30 32 35 35 35 36 35 34 36 33 32 33 38 37 37 35 36 38 39
21 22 24 24 24 23 23 22 23 22 24 24 25 26 29 32 34 36 37 35 34 31 28 26 27 28 28 30 31 28 28 28 26 25 24 23 25 27 29 30 30 31 36 39 40

GFSSW_500_spd_105.txt.gz
Wind_Speed
12 11 7 7 12 18 22 23 22 22 21 20 19 20 21 24 27 31 33 34 34 36 37 37 37 36 36 37 38 42 44 47 43 46 43 43 52 40 48 40 42 37 41 48 43
10 8 8 5 9 15 19 21 21 20 19 19 19 20 20 20 22 25 28 31 32 35 35 37 37 37 38 39 39 40 40 39 39 47 47 44 51 43 50 41 42 41 42 42 42
8 6 6 7 6 9 14 18 19 19 19 18 19 19 18 19 20 21 24 26 28 30 30 33 35 36 37 38 38 38 40 40 47 44 45 44 46 41 49 42 42 41 45 45 45
5 4 4 8 10 11 11 13 16 18 18 18 18 18 19 19 23 18 21 22 24 26 27 27 29 30 33 35 36 37 36 40 44 45 45 47 48 45 46 44 45 45 44 45 40
2 4 5 6 10 12 14 16 16 16 17 17 18 19 20 20 19 19 19 19 20 22 24 26 27 28 28 29 32 31 33 37 38 39 39 39 40 40 43 44 40 46 45 43 43
4 4 5 8 8 11 14 16 18 19 20 20 20 21 21 21 19 19 19 19 19 19 20 21 23 25 25 26 27 30 30 30 32 33 34 34 34 36 37 37 39 40 39 39 42
10 8 7 8 9 12 12 14 16 18 20 21 21 21 22 21 22 22 21 21 22 22 23 24 23 22 26 23 25 26 25 28 29 30 32 32 31 32 33 36 35 33 36 36 38
9 14 12 11 11 11 12 16 16 16 17 18 19 20 20 22 22 21 21 22 23 23 24 23 25 26 25 29 23 27 28 28 28 31 31 32 29 30 35 36 34 35 40 39 38
14 12 16 17 16 15 14 14 14 16 19 19 18 18 18 19 19 19 20 21 21 21 21 22 24 25 25 26 27 27 26 26 24 30 30 31 29 31 37 31 35 37 37 38 40
12 13 13 12 22 20 18 17 16 16 15 15 16 20 22 22 22 22 21 20 21 21 21 22 24 24 25 27 25 19 24 27 27 27 32 35 35 33 39 37 39 40 39 41 42
17 15 14 14 11 26 22 20 20 19 19 19 17 18 18 18 20 22 25 27 28 28 26 27 28 27 28 30 30 34 34 31 29 35 42 40 41 42 44 44 44 43 44 44 44
21 20 17 15 14 13 20 26 23 23 24 23 23 23 22 22 22 21 21 21 23 24 28 31 31 32 35 39 39 38 38 37 36 39 43 41 37 37 38 34 34 34 35 33 34
17 19 18 15 15 15 15 18 30 33 29 28 27 26 24 25 26 25 25 27 25 26 26 27 25 32 32 33 32 31 32 31 36 36 40 34 36 35 36 34 35 37 33 35 38
13 15 15 13 16 15 16 16 17 15 23 32 35 32 30 30 30 31 28 29 29 29 30 32 30 33 30 32 33 33 31 36 38 36 39 36 40 34 37 36 39 39 37 39 41
14 13 12 14 16 15 16 16 16 16 17 19 23 33 34 33 36 35 35 34 32 32 34 28 33 35 34 32 37 35 36 39 38 37 40 41 44 38 36 39 39 41 39 41 46
11 12 11 8 13 17 16 14 14 15 20 19 19 18 25 35 39 38 36 38 38 38 39 34 38 39 33 38 41 35 39 38 39 39 45 39 42 37 31 32 32 37 40 45 54
9 10 9 8 3 8 13 13 14 15 18 20 18 17 18 21 28 37 43 42 38 35 37 35 37 38 38 38 38 36 36 37 37 33 41 28 31 29 26 37 41 35 36 48 50
8 8 8 7 2 5 2 8 13 15 16 16 17 18 17 17 20 25 31 36 34 37 43 42 41 39 36 40 38 36 32 33 38 34 34 32 36 32 30 42 48 45 41 45 48
6 6 6 7 6 4 6 6 4 2 1 3 3 6 9 9 11 14 19 21 19 23 23 26 29 34 36 39 41 37 38 32 45 46 47 41 40 36 29 32 45 49 45 33 39
4 2 3 4 4 4 4 6 5 4 2 2 2 3 3 4 4 8 9 11 15 17 17 24 27 28 32 36 36 39 38 38 39 44 44 34 24 18 28 34 41 51 51 51 44
7 5 5 5 3 3 3 1 3 4 4 4 5 5 5 6 9 10 9 14 14 18 20 24 27 25 31 35 38 41 46 44 43 48 49 48 40 30 40 46 44 48 50 54 57
9 9 9 8 8 8 9 10 10 10 10 10 10 11 11 12 13 15 15 19 20 21 27 30 30 32 29 33 35 39 38 38 37 39 39 42 43 34 43 43 44 48 51 55 57
8 8 7 9 10 11 13 15 16 17 17 16 16 16 16 19 18 18 21 26 25 26 29 29 35 37 36 34 31 36 39 39 40 38 41 41 39 43 44 44 46 50 53 57 54
9 10 9 9 10 11 12 14 16 18 19 20 19 20 20 22 23 20 24 25 28 30 30 33 34 38 40 37 27 27 30 35 37 41 42 42 43 42 46 47 45 50 57 56 52
11 12 13 11 12 13 14 15 16 17 18 18 19 21 22 24 25 25 26 30 34 33 37 38 37 33 36 38 37 41 46 46 44 41 44 41 42 42 42 41 48 53 54 53 52
12 13 15 15 15 15 17 19 20 21 21 20 21 21 22 24 26 27 33 32 34 37 39 40 34 31 30 30 31 31 32 32 33 35 37 38 38 32 33 40 43 44 41 44 46
15 17 16 17 17 20 19 20 21 23 23 25 25 24 25 24 26 28 31 32 36 36 33 32 29 22 20 26 28 27 24 24 26 25 24 25 23 29 32 38 38 37 38 41 44

GFSSW_500_spd_108.txt.gz
Wind_Speed
8 9 4 7 12 19 22 23 23 22 22 20 20 22 25 29 31 33 33 35 31 34 33 34 35 38 40 43 47 47 49 47 47 43 42 41 43 43 43 44 43 43 33 44 52
7 6 8 4 8 13 18 20 20 20 19 19 18 18 19 22 27 28 33 32 32 35 34 35 35 36 36 37 40 43 46 46 44 39 43 47 50 45 54 47 43 42 39 40 50
3 3 7 8 6 10 15 17 18 18 18 18 17 16 17 18 21 23 25 29 31 33 35 36 36 37 37 38 38 38 39 37 34 36 46 50 45 52 53 46 42 39 41 42 48
5 2 5 10 11 11 12 15 17 18 17 17 17 17 17 17 22 19 20 22 25 27 28 29 32 34 34 36 36 39 39 39 38 44 51 43 42 48 42 43 45 41 43 43 46
8 6 6 8 12 16 16 16 17 18 18 18 18 19 18 18 17 19 18 20 21 24 25 26 27 28 28 30 32 35 33 36 39 44 50 44 45 45 44 45 43 41 44 42 44
11 10 9 10 11 13 17 19 21 21 21 20 20 20 21 22 13 20 19 20 21 21 23 25 26 27 28 29 30 29 31 35 38 40 42 40 41 42 40 38 42 39 39 36 37
12 13 13 11 14 14 15 17 20 22 22 23 23 23 23 23 20 23 22 22 22 23 23 23 25 28 25 26 28 29 31 31 31 33 33 35 36 35 33 34 36 36 34 34 34
9 18 15 15 14 16 18 18 18 19 21 23 24 25 25 22 25 24 24 24 25 26 26 25 24 23 26 26 27 25 26 27 27 29 30 32 29 30 31 34 36 34 34 36 36
13 9 9 21 18 18 18 21 22 20 19 20 21 22 22 24 25 25 25 26 27 27 28 27 27 28 29 28 29 27 29 28 26 26 27 34 31 28 32 37 38 34 36 37 38
17 14 11 9 17 23 20 19 19 22 24 25 23 22 23 24 22 22 23 24 25 26 26 27 28 28 29 29 29 25 23 22 24 15 30 33 35 30 33 38 38 36 36 38 39
20 20 17 14 12 9 28 22 20 20 20 22 21 27 26 28 26 26 24 25 25 24 23 25 28 26 24 26 25 25 23 29 20 16 27 35 37 35 36 37 42 41 40 41 43
15 17 19 17 14 14 12 32 26 23 25 23 22 24 21 24 24 27 28 29 30 27 28 29 28 24 26 27 28 30 33 37 33 32 34 38 43 47 41 42 44 43 40 37 37
9 12 13 15 15 15 15 14 26 34 30 26 27 26 24 24 25 24 23 24 25 27 30 32 28 29 34 34 35 36 38 38 37 38 42 42 46 39 34 32 35 35 36 35 33
7 8 8 13 16 16 15 14 14 14 22 32 35 28 26 27 26 27 26 28 28 27 27 29 26 29 26 32 36 37 34 32 35 37 40 35 42 35 28 28 35 36 38 36 36
7 8 8 8 16 16 16 14 15 13 11 15 10 18 33 38 34 31 32 30 29 29 31 26 27 29 32 33 30 31 32 34 34 35 39 38 42 38 32 32 30 30 34 39 40
6 7 7 6 8 17 16 15 12 11 11 15 14 13 14 18 31 42 38 35 34 36 36 33 34 31 31 31 32 37 36 37 39 39 45 38 39 36 29 25 24 26 31 35 44
4 5 5 5 2 8 13 12 10 12 12 14 19 15 16 15 16 20 27 40 45 42 39 39 35 33 37 37 35 35 36 36 36 33 39 25 28 28 20 29 35 36 39 49 54
4 4 4 5 1 4 5 10 11 7 17 17 18 17 15 17 17 15 15 16 18 30 42 49 46 42 31 31 37 33 27 32 36 40 42 36 43 36 35 25 26 28 39 50 54
3 2 3 4 5 4 5 5 9 11 9 5 6 7 6 9 8 6 5 6 9 13 16 20 20 29 44 33 41 42 45 43 48 52 51 45 41 44 41 49 44 40 43 50 58
3 2 2 1 1 3 5 7 4 1 1 2 2 2 3 1 3 3 3 6 9 10 8 12 13 18 21 26 28 33 33 37 38 44 40 40 31 29 35 40 43 43 49 50 55
6 5 5 4 4 4 4 3 5 5 5 6 6 8 8 8 10 9 9 13 11 14 14 17 20 15 20 24 25 29 35 37 40 44 47 46 43 30 41 34 38 41 45 50 55
4 4 7 7 7 9 9 8 10 10 11 12 13 14 14 15 16 16 18 20 17 18 23 23 26 29 24 24 27 29 31 35 40 40 40 38 40 31 42 39 41 35 50 55 57
2 1 1 3 5 9 8 10 13 14 15 17 18 19 19 22 20 21 22 25 24 24 24 28 32 33 31 30 31 33 32 30 38 39 41 42 38 37 43 43 37 44 44 50 55
6 4 3 3 4 6 8 9 10 11 13 15 18 20 21 22 22 22 25 27 26 27 27 32 33 36 38 40 37 36 34 35 33 38 40 40 40 37 38 43 46 50 53 55 57
9 8 6 7 7 8 11 13 15 15 15 15 16 17 20 21 23 23 24 25 29 29 31 34 35 37 41 40 37 35 37 40 43 39 45 43 46 46 49 48 49 55 51 52 53
12 9 9 9 11 13 13 15 17 16 18 19 18 21 22 23 23 24 27 25 29 32 33 37 39 39 37 31 31 31 28 31 34 38 43 44 45 36 34 34 42 42 43 46 45
16 14 14 12 12 15 15 17 19 20 18 20 21 21 22 22 23 24 26 28 30 29 34 36 36 32 27 22 23 22 19 22 22 24 23 26 28 30 33 37 40 41 37 38 46

GFSSW_500_spd_111.txt.gz
Wind_Speed
13 6 5 3 4 13 22 26 27 27 27 27 28 28 29 29 29 31 30 33 31 33 35 38 40 43 46 46 44 45 46 42 42 38 35 39 41 39 42 42 39 40 40 38 41
12 8 2 3 4 10 17 20 21 23 24 24 23 24 27 28 29 28 34 32 33 34 34 35 37 40 42 44 47 50 49 44 43 41 42 40 42 43 47 49 46 45 41 45 45
11 8 5 8 6 9 14 16 17 18 19 18 18 18 21 23 25 30 28 31 33 35 35 34 36 36 37 39 42 44 44 43 45 44 46 47 47 47 53 52 46 42 36 38 46
13 9 7 8 12 12 13 15 16 17 17 16 16 16 17 19 21 22 23 26 29 31 33 34 35 35 35 37 36 39 38 38 37 39 47 52 52 49 49 49 46 44 43 46 44
17 11 9 9 12 16 17 17 17 17 17 16 16 17 17 16 16 20 20 21 22 24 26 28 31 32 34 33 36 39 37 36 37 38 43 47 45 40 43 42 42 42 38 43 42
12 16 12 11 11 14 18 21 22 22 21 21 20 18 18 18 14 20 20 20 21 22 23 23 24 26 28 30 33 34 37 38 38 40 46 49 43 41 42 42 42 42 39 38 36
12 15 15 12 13 14 16 20 21 22 23 23 23 22 22 21 18 20 22 22 22 23 24 25 27 29 30 31 32 31 33 35 37 39 39 42 42 39 37 38 38 40 41 33 33
13 10 22 16 13 14 16 17 20 23 24 24 24 24 24 22 22 25 25 24 25 25 26 26 27 30 29 26 30 32 32 30 29 28 30 35 34 30 31 32 33 36 34 31 30
17 12 9 24 19 16 15 17 18 20 22 24 25 26 26 26 27 27 26 27 28 28 28 29 28 22 24 27 28 29 26 23 20 22 26 31 29 27 28 31 34 34 35 30 31
18 15 11 8 12 27 20 18 17 21 20 21 23 24 25 26 27 27 28 29 29 30 30 28 28 31 31 31 28 27 26 24 22 11 18 28 31 30 28 32 35 36 37 35 34
14 16 15 13 14 13 10 30 21 19 20 23 21 23 22 23 23 25 27 29 30 31 30 31 33 32 30 30 30 30 30 30 25 13 20 20 29 34 37 34 38 37 36 38 37
12 14 15 16 17 17 15 14 31 24 23 21 19 21 22 25 26 25 25 25 26 26 29 32 29 27 27 30 31 29 26 29 33 28 31 33 36 38 39 36 34 36 42 44 43
6 8 12 13 15 17 16 14 13 34 29 24 20 21 19 18 21 23 26 30 29 29 28 29 23 26 29 29 30 33 34 34 39 37 41 40 42 41 42 43 41 37 36 37 38
3 4 6 12 14 16 16 14 13 11 17 32 27 21 22 22 21 23 22 23 25 26 30 31 30 31 32 35 35 36 34 37 39 38 42 44 49 45 46 41 34 31 31 32 30
4 5 5 4 12 15 15 15 11 10 8 10 18 31 36 35 28 28 26 27 26 26 30 26 28 30 33 29 30 34 35 38 41 41 38 41 48 45 33 31 28 24 27 29 30
1 2 3 2 6 15 16 14 11 8 9 11 10 11 11 8 19 33 38 31 29 31 34 27 29 32 34 35 30 36 37 37 36 37 42 37 36 35 22 12 11 21 32 26 31
1 2 2 2 1 6 13 13 9 8 11 10 11 10 11 12 11 13 16 21 36 43 34 30 27 26 30 34 34 37 38 37 37 37 43 32 36 36 22 21 26 30 37 34 37
0 2 2 3 2 1 7 9 9 10 11 10 14 14 17 15 13 13 16 17 18 22 26 36 43 38 33 37 38 37 38 42 46 44 47 42 44 39 30 36 31 38 41 38 44
1 2 4 4 3 4 8 9 11 10 8 8 7 10 13 12 11 10 10 13 16 18 17 19 16 24 33 38 47 45 44 48 47 43 45 47 42 37 37 41 44 43 44 43 46
4 3 3 2 4 5 7 8 10 9 8 6 4 3 2 2 2 2 4 4 7 6 6 10 9 13 16 18 23 28 27 34 36 37 38 38 35 34 34 39 47 52 55 54 50
7 5 6 6 6 5 5 8 8 8 7 7 7 7 6 6 7 7 9 9 11 11 9 13 14 12 16 18 19 24 28 31 31 34 36 39 33 35 38 35 38 43 45 48 55
4 6 7 8 8 9 9 10 11 8 10 11 12 13 12 12 13 14 16 16 16 17 18 19 21 20 20 19 24 26 29 33 35 37 39 43 39 34 41 38 41 50 51 53 55
3 3 5 7 5 6 9 8 11 12 13 15 18 17 17 16 18 19 22 21 18 22 22 23 27 26 24 24 29 30 32 34 37 41 43 41 41 42 41 43 40 41 45 44 45
9 7 7 7 7 6 7 6 5 8 9 11 14 15 16 16 17 19 23 23 21 21 22 26 27 30 32 33 32 34 38 41 42 41 43 43 43 45 48 46 44 47 47 49 47
10 11 12 9 10 9 10 9 11 8 11 13 15 15 17 19 19 18 23 24 25 22 23 27 28 31 35 37 41 43 39 37 43 43 50 43 47 49 44 43 41 48 49 55 55
15 12 13 12 12 13 14 12 15 12 14 14 17 16 15 19 20 22 25 24 25 29 27 28 29 33 36 36 37 39 24 23 28 32 36 38 44 42 49 52 53 53 59 51 50
21 18 14 14 15 14 11 13 15 15 16 18 17 17 16 16 17 18 20 21 23 25 29 31 32 36 33 32 34 26 20 21 21 24 28 31 34 33 36 38 40 40 42 45 43

GFSSW_500_spd_114.txt.gz
Wind_Speed
19 17 11 7 7 6 6 14 25 30 32 32 32 31 31 31 32 31 32 35 35 40 43 43 44 45 41 39 40 43 40 34 37 38 29 33 36 38 39 41 39 35 36 40 40
16 14 10 6 1 2 5 12 22 27 30 32 33 32 31 31 32 32 35 33 34 37 40 42 45 46 45 46 44 44 40 32 34 35 40 43 41 36 38 42 42 43 42 44 46
16 12 10 7 5 4 6 9 13 19 25 28 29 30 29 29 30 33 34 34 35 37 37 39 42 43 44 48 49 48 42 39 37 35 38 44 46 43 44 42 44 42 43 41 41
12 12 9 8 10 11 12 14 16 17 18 20 21 22 24 25 27 31 31 34 36 36 35 37 37 38 39 42 43 47 45 46 44 44 46 47 50 50 49 47 49 48 43 40 40
12 12 10 9 11 14 17 17 17 18 19 18 18 18 18 20 22 23 24 28 32 33 35 35 36 36 37 35 40 41 40 39 40 45 50 53 55 53 50 48 49 48 47 44 43
14 11 12 11 11 14 17 21 21 21 21 21 20 20 20 20 19 21 21 22 24 27 30 32 29 32 35 35 39 36 37 39 38 40 43 47 48 49 45 46 44 42 44 42 42
15 13 10 14 12 13 16 18 22 23 23 23 22 23 24 23 22 23 24 24 24 25 26 28 31 32 33 35 39 40 40 40 40 41 43 46 44 40 36 36 42 43 43 44 44
17 13 13 13 14 13 15 17 19 21 23 24 24 24 24 23 25 27 27 27 26 26 28 30 30 30 31 33 33 34 34 35 37 37 40 43 41 37 32 40 41 42 45 45 42
16 15 12 9 19 14 14 16 18 19 21 22 23 23 25 25 25 25 26 28 29 29 29 30 31 31 30 29 31 33 33 30 24 28 28 35 36 33 34 37 37 39 40 40 38
13 16 15 13 12 20 17 14 16 19 20 21 24 24 24 23 24 26 29 28 27 28 31 30 29 27 27 30 29 28 29 26 25 28 32 32 37 35 32 34 35 38 36 35 32
14 13 18 17 15 13 17 26 18 17 19 20 21 23 22 25 26 27 29 29 29 30 29 29 30 29 29 30 28 30 32 29 29 27 35 36 38 36 37 36 37 37 37 35 33
12 12 17 20 19 19 18 15 19 24 21 19 24 23 23 22 22 26 28 28 28 29 31 31 27 28 30 31 32 33 35 35 34 36 40 37 37 37 39 40 37 37 35 31 33
5 6 11 16 20 22 22 19 15 20 24 20 20 20 22 23 24 23 24 25 27 28 29 28 28 30 31 33 36 37 37 37 39 38 42 43 40 38 38 39 39 37 30 31 37
5 4 2 8 17 18 18 20 14 11 20 27 24 21 20 20 21 23 25 26 27 26 28 27 28 28 31 31 31 34 33 34 34 39 41 41 41 41 42 42 40 37 34 34 33
6 5 4 5 10 15 16 14 12 13 10 12 26 31 26 22 23 22 22 23 23 25 31 30 35 35 34 35 38 39 38 41 40 40 40 36 45 43 41 43 39 43 42 38 38
5 4 4 3 7 13 15 14 12 12 10 9 7 14 21 28 25 31 28 25 25 27 25 24 26 27 31 37 40 43 41 41 41 42 44 38 39 42 33 35 41 39 42 41 37
4 3 4 5 6 8 10 12 11 10 11 13 12 9 6 8 8 9 14 28 33 31 27 27 26 26 28 30 34 37 39 38 39 37 39 35 37 41 27 37 38 39 42 43 33
4 3 3 4 7 8 10 11 12 12 14 13 11 9 11 10 10 11 13 14 17 23 33 37 33 31 34 32 32 34 36 38 42 41 37 34 42 37 32 35 34 38 43 38 36
6 3 3 4 9 13 15 14 7 22 17 10 9 9 10 10 10 11 13 16 17 16 18 20 24 34 41 45 44 39 41 44 46 46 42 38 32 30 32 37 39 38 42 47 41
8 7 6 5 8 14 17 16 15 14 9 9 8 6 8 7 7 5 5 5 4 5 9 9 12 17 17 19 28 26 27 36 36 36 34 31 27 24 27 30 33 39 47 51 52
10 9 8 6 8 11 14 13 10 12 10 9 9 8 6 6 5 5 6 7 6 5 7 8 9 12 13 13 18 24 23 28 28 31 34 33 26 27 29 30 32 37 39 41 46
8 9 10 9 12 13 6 10 14 13 12 10 10 9 8 9 10 11 13 11 10 12 14 14 15 16 17 22 24 25 29 30 33 34 35 38 35 36 39 39 41 43 44 43 51
6 5 8 10 12 12 13 13 13 14 13 15 14 12 12 14 16 16 18 14 17 19 18 19 20 19 20 24 26 29 31 34 37 38 39 42 43 44 42 40 39 39 41 43 47
7 8 7 6 10 7 10 10 13 11 10 13 12 11 11 12 14 16 17 15 15 16 19 22 22 22 22 25 29 31 34 35 38 44 45 47 47 44 46 49 41 42 44 47 47
13 12 12 11 11 13 15 13 11 8 10 11 11 10 13 12 13 17 17 18 17 18 20 21 22 27 28 29 31 33 34 33 39 42 46 42 44 45 51 49 46 53 55 45 41
17 14 11 10 16 17 16 16 13 11 14 11 13 13 14 14 15 17 16 18 17 17 19 19 22 27 28 31 36 34 31 36 36 37 39 37 37 40 43 45 46 51 55 55 57
22 20 18 23 17 17 15 14 15 15 13 13 12 12 12 15 14 14 15 16 17 19 20 20 23 27 26 31 34 34 31 27 26 25 26 27 28 30 31 33 36 35 34 36 40

GFSSW_500_spd_117.txt.gz
Wind_Speed
20 20 18 15 13 10 12 10 10 12 18 22 29 34 35 36 34 36 37 43 45 47 50 45 40 37 42 45 42 37 51 48 45 39 36 37 37 37 39 44 45 48 46 42 41
20 19 17 14 10 4 5 9 7 10 19 26 31 33 35 34 34 37 38 41 41 43 45 46 42 42 41 42 44 43 39 42 42 37 36 38 42 42 42 42 46 46 47 46 42
22 18 15 12 8 6 2 3 3 10 23 30 33 35 36 33 34 35 37 39 40 42 44 43 43 43 41 41 44 42 35 34 41 45 49 50 50 46 44 43 43 43 44 40 39
21 17 15 13 9 8 7 7 9 11 15 23 28 30 29 31 32 37 37 38 39 40 39 40 43 45 44 41 42 39 37 40 37 39 44 45 36 39 40 39 40 37 37 39 42
20 18 14 13 11 10 11 11 11 14 16 17 20 22 24 27 31 34 35 37 38 39 39 39 42 43 45 45 47 45 42 44 41 41 41 43 45 43 44 44 47 45 45 46 44
19 18 17 15 13 12 14 15 16 16 18 20 20 22 24 25 26 29 29 33 34 36 38 38 37 39 41 43 45 44 42 45 46 46 47 49 46 47 46 48 48 47 47 46 45
18 17 18 12 16 14 16 18 18 20 21 22 23 23 23 23 22 24 26 27 29 31 33 35 38 39 40 41 44 43 42 43 44 45 46 47 48 48 44 45 47 47 48 46 45
16 14 18 15 19 16 16 19 20 20 20 21 22 23 23 20 22 25 27 28 29 30 33 37 39 40 39 41 41 40 39 37 37 40 40 42 39 40 42 42 40 42 46 47 47
15 12 19 16 18 19 16 18 21 21 22 22 22 21 21 23 25 26 27 28 30 30 32 34 34 34 34 36 37 38 37 35 32 32 37 42 45 41 42 47 49 50 48 50 50
12 12 19 18 14 22 19 17 19 21 23 23 23 23 23 25 23 25 24 25 28 30 32 33 31 31 32 32 31 31 32 32 26 34 40 44 47 46 48 51 47 48 49 51 49
11 13 15 19 17 16 23 17 17 17 19 23 24 24 25 23 24 24 25 27 27 28 29 29 28 26 23 26 28 32 33 34 28 35 40 42 46 46 47 49 48 45 48 48 46
9 9 13 19 20 16 16 26 22 20 21 24 23 23 24 25 25 26 26 26 26 27 28 27 24 24 29 30 30 32 34 34 29 36 42 41 43 44 44 46 45 44 45 45 42
10 7 8 17 21 21 20 17 20 28 20 22 24 25 25 25 25 28 27 27 30 31 29 27 28 31 30 31 32 33 35 34 32 34 39 40 40 38 38 40 43 42 41 40 34
12 12 8 10 21 24 19 19 17 15 25 26 21 20 23 26 26 26 26 25 25 27 29 30 32 32 33 33 33 33 33 34 34 35 38 41 39 36 38 41 42 41 39 35 36
13 13 9 8 12 16 15 18 18 16 14 26 27 25 24 24 26 25 27 27 26 27 27 27 31 33 32 31 35 34 34 36 38 39 38 39 41 37 38 40 41 42 41 41 44
11 10 8 7 6 15 16 17 16 15 14 13 19 31 28 24 25 23 23 26 29 32 27 33 32 31 30 31 35 35 34 36 37 37 39 38 39 41 40 39 41 46 46 47 46
10 9 7 6 6 14 16 16 16 13 11 12 11 14 24 32 28 24 24 27 26 27 26 27 26 27 29 32 34 34 35 36 38 38 38 35 35 37 36 29 36 38 41 44 46
9 8 6 4 7 13 18 18 16 13 12 15 14 13 11 14 19 23 18 27 39 33 30 27 28 32 33 33 33 32 34 36 39 39 38 37 39 34 37 34 36 39 40 41 43
11 7 5 4 7 14 19 17 14 14 17 16 15 13 11 12 13 13 15 16 17 23 32 37 41 40 39 36 34 36 37 39 40 43 43 42 39 38 35 38 38 39 46 45 45
12 9 7 5 9 14 16 16 16 23 21 14 11 10 10 11 13 14 14 13 13 13 13 14 18 20 25 30 34 36 38 39 41 42 41 39 33 25 27 32 36 36 35 36 38
11 11 10 8 10 19 15 17 14 20 14 11 12 9 8 9 11 11 11 9 10 8 9 13 13 14 14 16 19 20 23 24 26 29 31 30 28 28 30 30 32 32 33 33 36
9 11 11 10 12 20 19 18 18 16 14 15 13 13 10 9 8 8 8 6 6 8 9 12 12 14 15 19 18 21 24 27 28 29 31 34 35 37 36 34 35 36 38 39 39
7 6 10 12 12 15 16 15 13 14 15 15 13 13 13 13 13 12 11 11 13 15 15 15 16 18 20 23 24 26 27 29 32 35 37 39 41 42 40 40 42 44 43 46 46
11 9 6 8 11 18 20 17 13 14 17 16 14 13 14 15 16 16 16 15 16 17 18 19 20 22 22 25 27 28 29 31 35 39 40 42 41 45 49 50 51 51 51 50 52
15 11 8 10 11 17 16 16 11 12 13 14 12 13 13 14 15 16 16 16 17 17 19 20 22 23 24 26 29 30 30 34 38 40 44 43 43 44 47 48 47 47 48 48 47
20 18 17 17 16 16 16 12 13 11 12 13 12 12 14 16 17 16 15 16 17 18 18 18 20 23 23 26 28 29 31 33 35 39 42 43 42 44 44 41 33 32 33 32 34
25 23 22 20 19 20 16 13 15 17 16 15 14 14 16 18 18 17 16 15 15 15 15 15 19 22 20 24 26 27 29 33 35 36 36 38 37 37 36 32 29 29 27 29 31